| time (UTC) | temp F | wind direction | speed knots | gust knots | rain 1hr in | rain 24hr in | rain mn in | humidity % | barometer mb |
| 20260505051525 | 46 | 266 | 6.1 | 14.8 | 0.00 | 0.65 | 0.00 | 82 | 1006.6 |
| 20260505041513 | 47 | 252 | 6.1 | 14.8 | 0.00 | 0.69 | 0.00 | 79 | 1006.0 |
| 20260505040010 | 47 | 257 | 5.2 | 13.9 | 0.00 | 0.70 | 0.00 | 78 | 1005.9 |
| 20260505034508 | 48 | 253 | 5.2 | 16.5 | 0.00 | 0.70 | 0.00 | 78 | 1005.8 |
| 20260505033010 | 48 | 279 | 4.3 | 16.5 | 0.00 | 0.70 | 0.00 | 77 | 1005.5 |
| 20260505031501 | 48 | 267 | 3.5 | 14.8 | 0.00 | 0.70 | 0.00 | 76 | 1005.5 |
| 20260505030117 | 49 | 210 | 4.3 | 13.9 | 0.00 | 0.70 | 0.00 | 75 | 1005.2 |
| 20260505024611 | 49 | 230 | 5.2 | 13.0 | 0.00 | 0.71 | 0.70 | 74 | 1005.0 |
| 20260505023057 | 49 | 221 | 5.2 | 13.0 | 0.00 | 0.71 | 0.70 | 74 | 1004.8 |
| 20260505021555 | 50 | 265 | 6.1 | 17.4 | 0.00 | 0.71 | 0.70 | 73 | 1004.8 |
| 20260505020106 | 50 | 232 | 5.2 | 16.5 | 0.00 | 0.71 | 0.70 | 73 | 1004.8 |
| 20260505014554 | 50 | 255 | 5.2 | 10.4 | 0.00 | 0.72 | 0.70 | 73 | 1004.6 |
| 20260505013053 | 50 | 260 | 5.2 | 16.5 | 0.00 | 0.72 | 0.70 | 72 | 1004.5 |
| 20260505011553 | 50 | 242 | 6.1 | 13.9 | 0.00 | 0.72 | 0.70 | 72 | 1004.5 |
| 20260505010107 | 50 | 232 | 6.1 | 17.4 | 0.00 | 0.72 | 0.70 | 71 | 1004.4 |
| 20260505004601 | 50 | 211 | 3.5 | 9.6 | 0.00 | 0.76 | 0.70 | 70 | 1004.2 |
| 20260505003051 | 50 | 228 | 6.1 | 13.0 | 0.00 | 0.76 | 0.70 | 69 | 1004.0 |
| 20260505001545 | 50 | 198 | 6.1 | 13.9 | 0.00 | 0.76 | 0.70 | 67 | 1003.9 |
| 20260505000142 | 50 | 226 | 3.5 | 11.3 | 0.00 | 0.76 | 0.70 | 63 | 1003.6 |
| 20260504234541 | 51 | 244 | 4.3 | 17.4 | 0.00 | 0.88 | 0.70 | 61 | 1003.4 |
| 20260504233039 | 51 | 261 | 6.1 | 14.8 | 0.00 | 0.88 | 0.70 | 57 | 1003.0 |
| 20260504231540 | 49 | 218 | 3.5 | 9.6 | 0.00 | 0.88 | 0.70 | 63 | 1002.7 |
| 20260504230037 | 49 | 226 | 1.7 | 4.3 | 0.00 | 0.98 | 0.70 | 63 | 1002.6 |
| 20260504224540 | 50 | 238 | 0.0 | 4.3 | 0.00 | 0.98 | 0.70 | 59 | 1002.5 |
| 20260504223033 | 51 | 233 | 4.3 | 10.4 | 0.00 | 0.98 | 0.70 | 54 | 1002.4 |
| 20260504221538 | 52 | 181 | 6.1 | 11.3 | 0.00 | 0.98 | 0.70 | 54 | 1002.3 |
| 20260504220030 | 52 | 260 | 4.3 | 14.8 | 0.00 | 1.10 | 0.70 | 54 | 1002.0 |
| 20260504214529 | 53 | 203 | 3.5 | 12.2 | 0.00 | 1.10 | 0.70 | 52 | 1001.9 |
| 20260504213036 | 53 | 191 | 7.0 | 20.0 | 0.00 | 1.10 | 0.70 | 53 | 1001.6 |
| 20260504211532 | 53 | 274 | 6.1 | 15.6 | 0.00 | 1.10 | 0.70 | 54 | 1001.4 |
| 20260504210023 | 54 | 236 | 5.2 | 22.6 | 0.00 | 1.14 | 0.70 | 53 | 1001.3 |
| 20260504204520 | 54 | 227 | 5.2 | 15.6 | 0.00 | 1.14 | 0.70 | 55 | 1001.1 |
| 20260504203018 | 53 | 283 | 7.0 | 26.1 | 0.00 | 1.14 | 0.70 | 54 | 1000.9 |
| 20260504201515 | 53 | 26 | 7.0 | 21.7 | 0.00 | 1.14 | 0.70 | 56 | 1000.7 |
| 20260504200014 | 53 | 286 | 11.3 | 22.6 | 0.00 | 1.20 | 0.70 | 57 | 1000.6 |
| 20260504194517 | 53 | 254 | 13.0 | 21.7 | 0.00 | 1.20 | 0.70 | 59 | 1000.3 |
| 20260504193011 | 52 | 262 | 11.3 | 23.5 | 0.00 | 1.20 | 0.70 | 63 | 1000.0 |
| 20260504191505 | 52 | 229 | 10.4 | 20.0 | 0.00 | 1.20 | 0.70 | 66 | 999.9 |
| 20260504190002 | 52 | 177 | 6.1 | 25.2 | 0.00 | 1.25 | 0.70 | 69 | 999.7 |
| 20260504184609 | 51 | 256 | 8.7 | 21.7 | 0.00 | 1.25 | 0.70 | 73 | 999.5 |
| 20260504183058 | 51 | 301 | 11.3 | 23.5 | 0.00 | 1.25 | 0.70 | 73 | 999.3 |
| 20260504181554 | 49 | 274 | 7.0 | 22.6 | 0.00 | 1.25 | 0.70 | 77 | 999.3 |
| 20260504180052 | 49 | 250 | 9.6 | 28.7 | 0.00 | 1.25 | 0.70 | 78 | 999.0 |
| 20260504174548 | 48 | 188 | 7.0 | 21.7 | 0.00 | 1.25 | 0.70 | 81 | 998.8 |
| 20260504173045 | 47 | 236 | 9.6 | 21.7 | 0.00 | 1.25 | 0.70 | 83 | 998.5 |
| 20260504171545 | 47 | 271 | 8.7 | 24.3 | 0.00 | 1.25 | 0.70 | 84 | 998.3 |
| 20260504081556 | 37 | 238 | 4.3 | 15.6 | 0.02 | 0.70 | 0.15 | 95 | 978.3 |